"startDT [UTC]","vpos","CH4 [ppm]","stdev(CH4) [ppm]","CO2 [ppm]","stdev(CO2) [ppm]","H2O_reported [%]","stdev(H2O_reported)","CavityPressure [torr]","CavityTemp [C]","OutletValve","CH4_dry [ppm]","CO2_dry [ppm]","DasTemp [C]","EtalonTemp [C]","WarmBoxTemp [C]","MPVPosition","T_ECpre [C]","T_EC1 [C]","T_EC2 [C]","p_inlet [hPa]","p_in [hPa]","p_out [hPa]","T_inlet [C]","RH_inlet [%]","dwpt_inlet [C]","T_vent [C]","RH_vent [%]","dwpt_vent [C]","flow_vent [l min-1]","flow_inlet [l min-1]","dwpt_sample [C]","T_room [C]"
2014-05-29 00:00:00,0.0,1.89435,0.00045,400.764,0.042,0.5385,0.0020,139.998,45.000,31558.51310,1.90456,403.402,35.438,45.063,44.999,0.00,0.11,-272.67,-272.65,-14,558,-0,18.9,18.6,-5.4,19.2,19.1,-5.0,5.73,2.85,-7.6,25.6
2014-05-29 00:01:00,0.0,1.89411,0.00029,400.716,0.028,0.5393,0.0017,139.999,45.000,31560.29993,1.90434,403.358,35.442,45.063,45.000,0.00,0.11,-272.67,-272.65,-15,557,-0,18.9,18.6,-5.4,19.2,19.1,-4.9,5.73,2.81,-7.5,25.6
2014-05-29 00:02:00,0.0,1.89434,0.00029,400.748,0.047,0.5366,0.0021,140.000,45.000,31561.29378,1.90449,403.377,35.440,45.063,45.000,0.00,0.11,-272.68,-272.66,-14,557,-0,18.9,18.6,-5.5,19.2,19.0,-5.0,5.73,2.80,-7.5,25.6
2014-05-29 00:03:00,0.0,1.89454,0.00035,400.757,0.037,0.5354,0.0016,140.000,45.000,31560.35920,1.90468,403.379,35.438,45.063,45.000,0.00,0.11,-272.66,-272.66,-14,556,-0,18.9,18.5,-5.5,19.2,19.0,-5.0,5.73,2.79,-7.6,25.6
2014-05-29 00:04:00,0.0,1.89457,0.00038,400.769,0.026,0.5341,0.0023,139.999,45.000,31560.41251,1.90469,403.386,35.418,45.063,45.000,0.00,0.11,-272.66,-272.65,-13,555,-0,18.9,18.4,-5.6,19.2,18.9,-5.1,5.73,2.64,-7.5,25.6
2014-05-29 00:05:00,0.0,1.89453,0.00041,400.803,0.028,0.5303,0.0018,140.000,45.000,31561.48994,1.90460,403.400,35.419,45.063,45.000,0.00,0.11,-272.66,-272.66,-11,556,-0,18.9,18.3,-5.7,19.2,18.8,-5.2,5.73,2.50,-7.6,25.7
2014-05-29 00:06:00,0.0,1.89461,0.00038,400.788,0.029,0.5304,0.0017,139.997,45.000,31561.24875,1.90460,403.385,35.437,45.063,45.000,0.00,0.11,-272.66,-272.66,-10,556,-0,18.9,18.3,-5.7,19.2,18.7,-5.2,5.73,2.47,-7.5,25.7
2014-05-29 00:07:00,0.0,1.89467,0.00031,400.812,0.027,0.5277,0.0024,140.001,45.000,31562.13379,1.90470,403.398,35.438,45.063,45.000,0.00,0.11,-272.66,-272.65,-10,556,-0,19.0,18.2,-5.7,19.2,18.6,-5.2,5.73,2.45,-7.5,25.7
2014-05-29 00:08:00,0.0,1.89467,0.00048,400.794,0.034,0.5292,0.0021,139.998,45.000,31561.39273,1.90470,403.386,35.438,45.063,45.000,0.00,0.11,-272.66,-272.66,-10,557,-0,18.9,18.2,-5.7,19.2,18.7,-5.2,5.73,2.45,-7.5,25.6
2014-05-29 00:09:00,0.0,1.89455,0.00035,400.790,0.040,0.5309,0.0016,140.000,45.000,31562.26891,1.90462,403.389,35.439,45.063,45.000,0.00,0.11,-272.66,-272.66,-10,558,-0,18.9,18.3,-5.7,19.2,18.8,-5.2,5.73,2.43,-7.5,25.7
2014-05-29 00:10:00,0.0,1.89463,0.00041,400.800,0.030,0.5328,0.0018,140.000,45.000,31560.22296,1.90472,403.410,35.437,45.063,45.000,0.00,0.11,-272.66,-272.66,-10,558,-0,19.0,18.4,-5.6,19.2,18.8,-5.1,5.73,2.42,-7.5,25.7
2014-05-29 00:11:00,0.0,1.89475,0.00032,400.803,0.025,0.5328,0.0018,140.000,45.000,31559.25930,1.90484,403.413,35.440,45.063,45.000,0.00,0.11,-272.66,-272.65,-11,559,-0,19.0,18.4,-5.6,19.2,18.8,-5.1,5.73,2.41,-7.5,25.7
2014-05-29 00:12:00,0.0,1.89482,0.00034,400.811,0.025,0.5331,0.0020,139.999,45.000,31559.33578,1.90493,403.421,35.450,45.063,45.000,0.00,0.11,-272.67,-272.66,-12,559,-0,19.0,18.4,-5.6,19.2,18.8,-5.1,5.73,2.39,-7.5,25.7
2014-05-29 00:13:00,0.0,1.89489,0.00039,400.804,0.030,0.5339,0.0018,139.997,45.000,31560.95913,1.90500,403.419,35.469,45.063,45.000,0.00,0.11,-272.66,-272.66,-13,559,-0,19.0,18.4,-5.6,19.2,18.8,-5.1,5.73,2.37,-7.5,25.7
2014-05-29 00:14:00,0.0,1.89474,0.00026,400.795,0.031,0.5362,0.0017,139.998,45.000,31562.64800,1.90491,403.423,35.462,45.063,45.000,0.00,0.11,-272.66,-272.65,-13,558,-0,19.0,18.5,-5.5,19.2,18.9,-5.0,5.73,2.37,-7.5,25.7
2014-05-29 00:15:00,0.0,1.89492,0.00034,400.796,0.029,0.5344,0.0020,139.999,45.000,31562.18837,1.90505,403.413,35.485,45.063,45.000,0.00,0.11,-272.66,-272.66,-14,558,-0,19.0,18.4,-5.5,19.2,18.9,-5.1,5.73,2.39,-7.5,25.7
2014-05-29 00:16:00,0.0,1.89491,0.00041,400.808,0.035,0.5315,0.0022,140.001,45.000,31564.27567,1.90495,403.411,35.478,45.063,45.000,0.00,0.11,-272.66,-272.66,-14,558,-0,19.0,18.3,-5.6,19.2,18.8,-5.1,5.73,2.39,-7.5,25.8
2014-05-29 00:17:00,0.0,1.89509,0.00038,400.839,0.027,0.5286,0.0017,139.999,45.000,31561.48822,1.90514,403.428,35.494,45.063,45.000,0.00,0.11,-272.65,-272.65,-15,557,-0,19.0,18.2,-5.7,19.2,18.6,-5.2,5.73,2.40,-7.5,25.8
2014-05-29 00:18:00,0.0,1.89510,0.00025,400.832,0.036,0.5285,0.0013,139.999,45.000,31563.54648,1.90512,403.422,35.487,45.063,45.000,0.00,0.11,-272.66,-272.65,-14,557,-0,19.0,18.2,-5.7,19.2,18.6,-5.2,5.73,2.42,-7.5,25.7
2014-05-29 00:19:00,0.0,1.89513,0.00040,400.854,0.026,0.5274,0.0016,139.999,45.000,31563.25706,1.90511,403.436,35.476,45.063,45.000,0.00,0.11,-272.66,-272.66,-14,556,-0,19.0,18.1,-5.8,19.2,18.6,-5.3,5.73,2.44,-7.5,25.7
2014-05-29 00:20:00,0.0,1.89540,0.00039,400.868,0.034,0.5242,0.0022,140.000,45.000,31562.78569,1.90531,403.436,35.469,45.063,45.000,0.00,0.11,-272.66,-272.66,-13,556,-1,19.0,18.0,-5.8,19.3,18.5,-5.3,5.73,2.45,-7.5,25.7
2014-05-29 00:21:00,0.0,1.89515,0.00030,400.854,0.032,0.5249,0.0021,140.001,45.000,31561.98865,1.90511,403.425,35.482,45.063,45.000,0.00,0.11,-272.66,-272.66,-12,556,-1,19.0,18.0,-5.8,19.3,18.4,-5.3,5.73,2.46,-7.5,25.8
2014-05-29 00:22:00,0.0,1.89492,0.00029,400.850,0.040,0.5243,0.0019,139.997,45.000,31564.32224,1.90488,403.419,35.497,45.063,45.000,0.00,0.11,-272.67,-272.66,-12,556,-0,19.0,18.0,-5.9,19.3,18.4,-5.4,5.73,2.48,-7.5,25.8
2014-05-29 00:23:00,0.0,1.89503,0.00030,400.844,0.042,0.5223,0.0016,139.997,45.000,31563.97869,1.90491,403.400,35.498,45.063,45.000,0.00,0.11,-272.67,-272.66,-11,556,-1,19.0,17.9,-5.9,19.3,18.4,-5.4,5.73,2.50,-7.5,25.7
2014-05-29 00:24:00,0.0,1.89497,0.00025,400.864,0.026,0.5231,0.0023,140.001,45.000,31564.90245,1.90487,403.426,35.496,45.063,45.000,0.00,0.11,-272.66,-272.65,-10,556,-1,19.0,17.9,-5.9,19.3,18.4,-5.4,5.73,2.52,-7.5,25.7
2014-05-29 00:25:00,0.0,1.89526,0.00034,400.866,0.035,0.5253,0.0025,139.999,45.000,31563.66888,1.90520,403.438,35.497,45.063,45.000,0.00,0.11,-272.68,-272.65,-10,557,-1,19.1,18.0,-5.8,19.3,18.4,-5.3,5.73,2.56,-7.5,25.7
2014-05-29 00:26:00,0.0,1.89505,0.00040,400.841,0.034,0.5281,0.0015,139.996,45.000,31563.65411,1.90507,403.428,35.500,45.063,45.000,0.00,0.11,-272.67,-272.65,-10,557,-0,19.0,18.2,-5.7,19.3,18.6,-5.2,5.73,2.59,-7.5,25.7
2014-05-29 00:27:00,0.0,1.89522,0.00037,400.841,0.031,0.5299,0.0020,139.999,45.000,31563.18689,1.90526,403.437,35.500,45.063,45.000,0.00,0.11,-272.67,-272.65,-10,558,-1,19.0,18.2,-5.7,19.3,18.6,-5.2,5.73,2.61,-7.5,25.7
2014-05-29 00:28:00,0.0,1.89542,0.00034,400.845,0.030,0.5290,0.0021,140.000,45.000,31563.25529,1.90544,403.436,35.503,45.063,45.000,0.00,0.11,-272.67,-272.65,-10,558,-1,19.0,18.2,-5.7,19.3,18.6,-5.2,5.73,2.65,-7.5,25.8
2014-05-29 00:29:00,0.0,1.89536,0.00033,400.847,0.032,0.5270,0.0020,139.999,45.000,31564.11097,1.90534,403.429,35.505,45.063,45.000,0.00,0.11,-272.67,-272.66,-11,559,-1,19.1,18.1,-5.7,19.3,18.5,-5.3,5.73,2.68,-7.5,25.7
2014-05-29 00:30:00,0.0,1.89549,0.00038,400.874,0.028,0.5255,0.0017,139.997,45.000,31564.56290,1.90547,403.447,35.500,45.063,45.000,0.00,0.11,-272.67,-272.65,-11,559,-1,19.0,18.1,-5.8,19.3,18.5,-5.3,5.73,2.72,-7.5,25.7
2014-05-29 00:31:00,0.0,1.89527,0.00037,400.874,0.031,0.5260,0.0018,140.002,45.000,31567.06751,1.90524,403.451,35.500,45.063,45.000,0.00,0.11,-272.67,-272.65,-12,559,-1,19.1,18.0,-5.8,19.3,18.4,-5.3,5.73,2.72,-7.5,25.8
2014-05-29 00:32:00,0.0,1.89511,0.00038,400.868,0.049,0.5248,0.0016,140.001,45.000,31568.85501,1.90504,403.438,35.502,45.063,45.000,0.00,0.11,-272.67,-272.65,-13,559,-0,19.1,18.0,-5.8,19.3,18.4,-5.3,5.73,2.72,-7.5,25.8
2014-05-29 00:33:00,0.0,1.89538,0.00040,400.869,0.028,0.5244,0.0019,140.000,45.000,31567.77761,1.90533,403.437,35.511,45.063,45.000,0.00,0.11,-272.67,-272.65,-13,559,-1,19.1,18.0,-5.8,19.3,18.4,-5.3,5.73,2.77,-7.5,25.8
2014-05-29 00:34:00,0.0,1.89524,0.00039,400.865,0.032,0.5242,0.0018,140.000,45.000,31567.50230,1.90517,403.434,35.524,45.063,45.000,0.00,0.11,-272.67,-272.65,-14,558,-1,19.1,18.0,-5.8,19.3,18.4,-5.3,5.73,2.81,-7.5,25.8
2014-05-29 00:35:00,0.0,1.89508,0.00045,400.853,0.023,0.5255,0.0014,139.999,45.000,31567.74894,1.90504,403.426,35.502,45.063,45.000,0.00,0.11,-272.67,-272.65,-14,558,-1,19.1,18.0,-5.8,19.3,18.4,-5.3,5.73,2.85,-7.5,25.7
2014-05-29 00:36:00,0.0,1.89501,0.00026,400.867,0.031,0.5249,0.0017,140.000,45.000,31568.25106,1.90495,403.438,35.500,45.063,45.000,0.00,0.11,-272.67,-272.66,-15,558,-1,19.1,18.0,-5.8,19.3,18.4,-5.3,5.73,2.89,-7.5,25.8
2014-05-29 00:37:00,0.0,1.89498,0.00036,400.866,0.024,0.5242,0.0017,139.998,45.000,31567.50723,1.90490,403.433,35.490,45.063,45.000,0.00,0.11,-272.67,-272.65,-15,557,-1,19.1,18.0,-5.8,19.3,18.4,-5.4,5.73,2.93,-7.4,25.8
2014-05-29 00:38:00,0.0,1.89506,0.00031,400.868,0.030,0.5228,0.0018,140.001,45.000,31568.57505,1.90498,403.430,35.465,45.063,45.000,0.00,0.11,-272.67,-272.65,-14,557,-1,19.1,18.0,-5.8,19.3,18.4,-5.4,5.73,2.96,-7.5,25.8
2014-05-29 00:39:00,0.0,1.89491,0.00034,400.835,0.032,0.5254,0.0017,140.000,45.000,31569.26804,1.90488,403.409,35.465,45.063,45.000,0.00,0.11,-272.68,-272.65,-14,557,-1,19.1,18.0,-5.8,19.3,18.4,-5.3,5.73,3.00,-7.4,25.8
2014-05-29 00:40:00,0.0,1.89512,0.00043,400.848,0.032,0.5263,0.0015,140.001,45.000,31569.35745,1.90509,403.424,35.442,45.063,45.000,0.00,0.11,-272.67,-272.65,-13,556,-1,19.1,18.0,-5.8,19.3,18.4,-5.3,5.73,3.04,-7.5,25.7
2014-05-29 00:41:00,0.0,1.89549,0.00023,400.860,0.029,0.5275,0.0016,140.001,45.000,31567.42718,1.90546,403.445,35.449,45.064,45.001,0.00,0.11,-272.67,-272.65,-13,556,-1,19.1,18.1,-5.7,19.3,18.5,-5.3,5.73,3.07,-7.4,25.7
2014-05-29 00:42:00,0.0,1.89547,0.00032,400.872,0.029,0.5274,0.0018,140.000,45.000,31565.40901,1.90548,403.455,35.486,45.063,45.000,0.00,0.11,-272.67,-272.66,-12,556,-1,19.1,18.1,-5.8,19.3,18.5,-5.3,5.73,3.09,-7.5,25.8
2014-05-29 00:43:00,0.0,1.89543,0.00029,400.876,0.046,0.5236,0.0020,139.999,45.000,31568.32843,1.90533,403.442,35.498,45.063,45.000,0.00,0.11,-272.67,-272.66,-11,556,-1,19.1,18.0,-5.8,19.3,18.4,-5.3,5.73,3.11,-7.4,25.8
2014-05-29 00:44:00,0.0,1.89523,0.00036,400.859,0.030,0.5214,0.0021,140.000,45.000,31568.83900,1.90513,403.412,35.500,45.063,45.000,0.00,0.11,-272.66,-272.66,-11,556,-1,19.1,17.9,-5.9,19.3,18.3,-5.4,5.73,3.13,-7.4,25.8
2014-05-29 00:45:00,0.0,1.89515,0.00037,400.884,0.032,0.5223,0.0016,139.999,45.000,31567.50717,1.90505,403.440,35.500,45.063,45.000,0.00,0.11,-272.66,-272.67,-10,557,-1,19.1,17.9,-5.9,19.3,18.3,-5.4,5.73,3.16,-7.5,25.8
2014-05-29 00:46:00,0.0,1.89506,0.00024,400.865,0.041,0.5228,0.0018,140.000,45.000,31567.32326,1.90496,403.427,35.511,45.063,45.000,0.00,0.11,-272.66,-272.67,-10,557,-1,19.1,17.9,-5.9,19.3,18.3,-5.4,5.73,3.17,-7.5,25.8
2014-05-29 00:47:00,0.0,1.89521,0.00034,400.859,0.030,0.5248,0.0014,139.998,45.000,31567.57050,1.90515,403.429,35.518,45.063,45.000,0.00,0.11,-272.65,-272.67,-10,557,-1,19.1,18.0,-5.8,19.3,18.4,-5.3,5.73,3.17,-7.4,25.8
2014-05-29 00:48:00,0.0,1.89507,0.00036,400.845,0.029,0.5255,0.0020,139.998,45.000,31566.73105,1.90502,403.418,35.522,45.063,45.000,0.00,0.11,-272.64,-272.68,-10,557,-1,19.1,18.0,-5.8,19.3,18.4,-5.3,5.73,3.17,-7.4,25.8
2014-05-29 00:49:00,0.0,1.89524,0.00038,400.844,0.025,0.5266,0.0019,140.000,45.000,31567.40960,1.90521,403.424,35.520,45.063,45.000,0.00,0.11,-272.64,-272.69,-10,558,-1,19.1,18.0,-5.8,19.3,18.4,-5.3,5.73,3.16,-7.4,25.7
2014-05-29 00:50:00,0.0,1.89513,0.00030,400.838,0.036,0.5251,0.0018,140.000,45.000,31567.69761,1.90509,403.410,35.524,45.063,45.000,0.00,0.11,-272.64,-272.69,-10,558,-1,19.1,18.0,-5.8,19.3,18.4,-5.3,5.73,3.14,-7.4,25.8
2014-05-29 00:51:00,0.0,1.89508,0.00029,400.850,0.039,0.5253,0.0016,139.999,45.000,31567.85474,1.90505,403.423,35.549,45.063,45.000,0.00,0.11,-272.63,-272.69,-10,559,-1,19.1,18.0,-5.8,19.3,18.4,-5.3,5.73,3.10,-7.4,25.8
2014-05-29 00:52:00,0.0,1.89500,0.00040,400.855,0.024,0.5246,0.0017,140.001,45.000,31570.44722,1.90494,403.424,35.545,45.063,45.000,0.00,0.11,-272.63,-272.70,-11,559,-1,19.1,18.0,-5.8,19.3,18.4,-5.3,5.73,3.04,-7.4,25.9
2014-05-29 00:53:00,0.0,1.89511,0.00038,400.856,0.029,0.5252,0.0012,139.999,45.000,31568.93498,1.90506,403.428,35.543,45.063,45.000,0.00,0.10,-272.62,-272.71,-11,559,-1,19.1,18.0,-5.8,19.3,18.4,-5.3,5.73,2.97,-7.4,25.9
2014-05-29 00:54:00,0.0,1.89517,0.00024,400.859,0.028,0.5257,0.0023,140.002,45.000,31569.70485,1.90511,403.434,35.546,45.063,45.000,0.00,0.10,-272.61,-272.71,-11,559,-1,19.1,18.0,-5.8,19.3,18.4,-5.3,5.73,2.89,-7.4,25.9
2014-05-29 00:55:00,0.0,1.89560,0.00024,400.902,0.048,0.5246,0.0016,139.997,45.000,31565.42059,1.90554,403.472,35.558,45.063,45.000,0.00,0.10,-272.60,-272.72,-12,559,-1,19.1,18.0,-5.8,19.3,18.4,-5.3,5.73,2.79,-7.4,25.8
2014-05-29 00:56:00,0.0,1.89516,0.00041,400.896,0.043,0.5240,0.0016,139.998,45.000,31566.66345,1.90510,403.462,35.563,45.063,45.000,0.00,0.10,-272.60,-272.72,-12,559,-0,19.1,17.9,-5.8,19.3,18.3,-5.3,5.73,2.69,-7.4,25.9
2014-05-29 00:57:00,0.0,1.89532,0.00040,400.881,0.030,0.5255,0.0019,140.002,45.000,31567.83555,1.90528,403.455,35.561,45.063,45.000,0.00,0.10,-272.59,-272.73,-13,559,-1,19.1,18.0,-5.8,19.4,18.3,-5.3,5.73,2.58,-7.4,25.9
2014-05-29 00:58:00,0.0,1.89549,0.00038,400.878,0.024,0.5239,0.0019,140.000,45.000,31566.32899,1.90541,403.444,35.567,45.063,45.000,0.00,0.11,-272.58,-272.73,-13,559,-1,19.1,18.0,-5.8,19.4,18.4,-5.3,5.73,2.47,-7.4,25.9
2014-05-29 00:59:00,0.0,1.89541,0.00044,400.882,0.026,0.5240,0.0016,140.000,45.000,31568.63176,1.90532,403.448,35.601,45.063,45.000,0.00,0.10,-272.59,-272.73,-14,559,-1,19.1,17.9,-5.8,19.4,18.3,-5.3,5.73,2.36,-7.4,25.9
2014-05-29 01:00:00,0.0,1.89515,0.00040,400.857,0.026,0.5261,0.0021,139.999,45.000,31570.58244,1.90515,403.434,35.626,45.063,45.000,0.00,0.10,-272.58,-272.73,-14,559,-1,19.1,18.0,-5.8,19.4,18.4,-5.3,5.73,2.25,-7.4,25.9
2014-05-29 01:01:00,0.0,1.89557,0.00045,400.857,0.028,0.5252,0.0022,140.000,45.000,31569.92006,1.90550,403.430,35.624,45.063,45.000,0.00,0.11,-272.58,-272.73,-14,558,-1,19.1,18.0,-5.8,19.4,18.4,-5.3,5.73,2.16,-7.4,25.9
2014-05-29 01:02:00,0.0,1.89558,0.00040,400.886,0.029,0.5245,0.0020,140.000,45.000,31569.29243,1.90555,403.454,35.625,45.063,45.000,0.00,0.10,-272.59,-272.73,-14,558,-1,19.1,17.9,-5.8,19.4,18.3,-5.3,5.73,2.09,-7.4,25.8
2014-05-29 01:03:00,0.0,1.89550,0.00034,400.887,0.027,0.5235,0.0015,140.001,45.000,31569.11428,1.90539,403.451,35.624,45.063,45.000,0.00,0.11,-272.59,-272.73,-15,558,-1,19.1,17.9,-5.9,19.3,18.3,-5.4,5.73,2.02,-7.4,25.8
2014-05-29 01:04:00,0.0,1.89558,0.00037,400.887,0.042,0.5247,0.0018,139.998,45.000,31568.62717,1.90553,403.455,35.625,45.063,45.000,0.00,0.11,-272.59,-272.72,-15,558,-1,19.1,17.9,-5.8,19.4,18.3,-5.4,5.73,1.96,-7.4,25.9
2014-05-29 01:05:00,0.0,1.89558,0.00047,400.897,0.027,0.5252,0.0023,140.001,45.000,31569.63915,1.90555,403.470,35.626,45.063,45.000,0.00,0.11,-272.59,-272.72,-15,557,-1,19.1,17.9,-5.8,19.4,18.3,-5.3,5.73,1.91,-7.4,25.8
2014-05-29 01:06:00,0.0,1.89546,0.00039,400.860,0.026,0.5267,0.0023,139.999,45.000,31569.62406,1.90542,403.440,35.635,45.063,45.000,0.00,0.11,-272.60,-272.71,-14,557,-1,19.1,17.9,-5.8,19.4,18.4,-5.3,5.73,1.88,-7.4,25.8
2014-05-29 01:07:00,0.0,1.89540,0.00033,400.866,0.035,0.5263,0.0015,139.996,45.000,31568.97114,1.90537,403.444,35.641,45.063,45.000,0.00,0.11,-272.61,-272.70,-14,557,-1,19.1,18.0,-5.8,19.4,18.4,-5.3,5.73,1.87,-7.4,25.8
2014-05-29 01:08:00,0.0,1.89577,0.00035,400.876,0.030,0.5275,0.0017,139.997,45.000,31568.46011,1.90576,403.459,35.636,45.063,45.000,0.00,0.11,-272.61,-272.69,-14,557,-1,19.1,18.0,-5.8,19.4,18.4,-5.3,5.73,1.88,-7.4,25.9
2014-05-29 01:09:00,0.0,1.89583,0.00038,400.874,0.033,0.5263,0.0016,140.002,45.000,31569.28557,1.90583,403.453,35.649,45.063,45.000,0.00,0.11,-272.62,-272.69,-14,556,-1,19.1,18.0,-5.8,19.4,18.4,-5.3,5.73,1.92,-7.4,25.8
2014-05-29 01:10:00,0.0,1.89579,0.00033,400.875,0.025,0.5268,0.0027,139.998,45.000,31569.48726,1.90576,403.455,35.671,45.063,45.000,0.00,0.11,-272.63,-272.68,-13,556,-1,19.1,18.0,-5.8,19.4,18.4,-5.3,5.73,1.98,-7.4,25.9
2014-05-29 01:11:00,0.0,1.89566,0.00036,400.878,0.027,0.5261,0.0022,140.000,45.000,31570.44961,1.90566,403.456,35.659,45.063,45.000,0.00,0.11,-272.63,-272.67,-13,556,-1,19.1,18.0,-5.8,19.4,18.3,-5.3,5.73,2.07,-7.4,25.9
2014-05-29 01:12:00,0.0,1.89568,0.00031,400.881,0.028,0.5281,0.0017,140.001,45.000,31570.80034,1.90566,403.468,35.654,45.063,45.000,0.00,0.11,-272.64,-272.66,-13,556,-1,19.1,18.0,-5.8,19.4,18.4,-5.2,5.73,2.18,-7.4,25.9
2014-05-29 01:13:00,0.0,1.89564,0.00038,400.879,0.035,0.5277,0.0019,139.999,45.000,31570.66164,1.90564,403.463,35.660,45.063,45.000,0.00,0.11,-272.66,-272.66,-12,556,-1,19.1,18.0,-5.7,19.4,18.4,-5.3,5.73,2.32,-7.4,25.9
2014-05-29 01:14:00,0.0,1.89573,0.00035,400.860,0.032,0.5260,0.0014,140.001,45.000,31570.75333,1.90570,403.437,35.653,45.063,45.000,0.00,0.11,-272.66,-272.65,-12,556,-1,19.1,18.0,-5.8,19.4,18.4,-5.3,5.73,2.47,-7.4,25.9
2014-05-29 01:15:00,0.0,1.89565,0.00035,400.888,0.039,0.5259,0.0018,139.999,45.000,31569.05637,1.90563,403.463,35.632,45.063,45.000,0.00,0.11,-272.67,-272.65,-12,556,-1,19.1,17.9,-5.8,19.4,18.3,-5.3,5.73,2.63,-7.4,25.9
2014-05-29 01:16:00,0.0,1.89585,0.00043,400.913,0.032,0.5254,0.0026,139.997,45.000,31566.57783,1.90581,403.485,35.626,45.063,45.000,0.00,0.11,-272.67,-272.65,-11,557,-1,19.1,17.9,-5.8,19.4,18.3,-5.3,5.73,2.78,-7.4,25.9
2014-05-29 01:17:00,0.0,1.89591,0.00035,400.906,0.030,0.5265,0.0017,140.003,45.000,31570.42092,1.90591,403.485,35.626,45.063,45.000,0.00,0.11,-272.67,-272.65,-11,557,-1,19.1,17.9,-5.8,19.4,18.3,-5.3,5.73,2.91,-7.4,25.9
2014-05-29 01:18:00,0.0,1.89563,0.00029,400.903,0.028,0.5273,0.0015,140.002,45.000,31571.21088,1.90561,403.486,35.624,45.063,45.000,0.00,0.11,-272.66,-272.65,-11,557,-1,19.1,18.0,-5.8,19.4,18.4,-5.3,5.73,3.01,-7.4,25.9
2014-05-29 01:19:00,0.0,1.89589,0.00038,400.875,0.033,0.5306,0.0020,139.998,45.000,31570.24387,1.90593,403.474,35.626,45.063,45.000,0.00,0.11,-272.67,-272.66,-10,557,-1,19.1,18.1,-5.7,19.4,18.5,-5.2,5.73,3.09,-7.4,25.9
2014-05-29 01:20:00,0.0,1.89589,0.00032,400.868,0.031,0.5307,0.0018,139.998,45.000,31569.63640,1.90596,403.469,35.628,45.063,45.000,0.00,0.11,-272.66,-272.67,-10,557,-1,19.1,18.1,-5.7,19.4,18.5,-5.2,5.73,3.14,-7.4,25.9
2014-05-29 01:21:00,0.0,1.89593,0.00026,400.883,0.033,0.5303,0.0013,140.000,45.000,31568.95169,1.90598,403.481,35.627,45.063,45.000,0.00,0.11,-272.65,-272.67,-10,557,-1,19.1,18.1,-5.7,19.4,18.5,-5.2,5.73,3.17,-7.4,25.8
2014-05-29 01:22:00,0.0,1.89560,0.00043,400.874,0.020,0.5302,0.0016,139.997,45.000,31568.78565,1.90567,403.471,35.626,45.063,45.000,0.00,0.11,-272.64,-272.68,-10,557,-1,19.2,18.1,-5.7,19.4,18.5,-5.2,5.73,3.16,-7.4,25.9
2014-05-29 01:23:00,0.0,1.89544,0.00043,400.864,0.032,0.5297,0.0021,140.000,45.000,31569.84358,1.90549,403.460,35.625,45.063,45.000,0.00,0.11,-272.63,-272.69,-10,557,-1,19.1,18.1,-5.7,19.4,18.5,-5.2,5.73,3.11,-7.4,25.9
2014-05-29 01:24:00,0.0,1.89544,0.00043,400.875,0.030,0.5301,0.0015,140.000,45.000,31567.75263,1.90543,403.470,35.623,45.063,45.000,0.00,0.11,-272.62,-272.70,-10,557,-1,19.1,18.1,-5.7,19.4,18.5,-5.2,5.73,3.03,-7.4,25.9
2014-05-29 01:25:00,0.0,1.89565,0.00037,400.869,0.027,0.5309,0.0017,140.000,45.000,31569.20265,1.90575,403.470,35.627,45.063,45.000,0.00,0.10,-272.61,-272.71,-10,558,-1,19.1,18.1,-5.7,19.4,18.5,-5.2,5.73,2.89,-7.4,25.9
2014-05-29 01:26:00,0.0,1.89576,0.00042,400.868,0.032,0.5324,0.0015,139.999,45.000,31568.63065,1.90586,403.477,35.631,45.063,45.000,0.00,0.10,-272.60,-272.72,-10,558,-1,19.2,18.1,-5.6,19.4,18.5,-5.1,5.73,2.71,-7.4,25.9
2014-05-29 01:27:00,0.0,1.89565,0.00038,400.883,0.036,0.5310,0.0016,140.002,45.000,31569.81186,1.90569,403.483,35.628,45.063,45.000,0.00,0.10,-272.59,-272.73,-10,558,-1,19.2,18.1,-5.7,19.4,18.5,-5.2,5.73,2.52,-7.4,25.9
2014-05-29 01:28:00,0.0,1.89540,0.00042,400.882,0.028,0.5303,0.0013,140.002,45.000,31569.23495,1.90549,403.481,35.627,45.063,45.000,0.00,0.11,-272.58,-272.72,-10,558,-1,19.2,18.1,-5.7,19.4,18.5,-5.2,5.73,2.32,-7.4,25.9
2014-05-29 01:29:00,0.0,1.89576,0.00035,400.862,0.023,0.5333,0.0019,140.000,45.000,31567.54898,1.90583,403.474,35.626,45.063,45.000,0.00,0.11,-272.59,-272.73,-10,558,-1,19.2,18.1,-5.6,19.4,18.5,-5.1,5.73,2.14,-7.4,25.9
2014-05-29 01:30:00,0.0,1.89558,0.00033,400.875,0.032,0.5347,0.0016,139.998,45.000,31569.73663,1.90574,403.495,35.635,45.063,45.000,0.00,0.11,-272.59,-272.72,-10,558,-1,19.2,18.2,-5.6,19.4,18.6,-5.1,5.73,2.00,-7.4,25.9
2014-05-29 01:31:00,0.0,1.89579,0.00035,400.844,0.026,0.5357,0.0018,139.999,45.000,31569.90068,1.90593,403.467,35.635,45.063,45.000,0.00,0.11,-272.59,-272.72,-10,558,-1,19.2,18.3,-5.5,19.4,18.7,-5.0,5.73,1.91,-7.4,25.9
2014-05-29 01:32:00,0.0,1.89598,0.00044,400.843,0.036,0.5372,0.0015,139.999,45.000,31568.38719,1.90617,403.476,35.678,45.063,45.000,0.00,0.11,-272.60,-272.71,-10,558,-1,19.2,18.3,-5.5,19.4,18.7,-5.0,5.73,1.87,-7.4,25.9
2014-05-29 01:33:00,0.0,1.89581,0.00028,400.860,0.034,0.5368,0.0021,140.001,45.000,31568.70215,1.90600,403.490,35.688,45.063,45.000,0.00,0.11,-272.62,-272.70,-10,559,-1,19.2,18.3,-5.5,19.4,18.7,-5.0,5.73,1.88,-7.4,25.9
2014-05-29 01:34:00,0.0,1.89565,0.00020,400.843,0.042,0.5354,0.0014,139.997,45.000,31570.08758,1.90580,403.466,35.688,45.063,45.000,0.00,0.11,-272.62,-272.69,-10,559,-1,19.2,18.2,-5.6,19.4,18.6,-5.1,5.73,1.92,-7.4,26.0
2014-05-29 01:35:00,0.0,1.89581,0.00036,400.866,0.031,0.5334,0.0014,140.001,45.000,31569.64003,1.90590,403.479,35.682,45.063,45.000,0.00,0.11,-272.63,-272.67,-10,559,-1,19.2,18.1,-5.6,19.5,18.6,-5.1,5.73,2.02,-7.3,26.0
2014-05-29 01:36:00,0.0,1.89588,0.00036,400.881,0.034,0.5321,0.0021,140.000,45.000,31569.10088,1.90598,403.488,35.687,45.063,45.000,0.00,0.11,-272.64,-272.67,-10,559,-1,19.2,18.1,-5.7,19.4,18.5,-5.1,5.73,2.17,-7.4,26.0
2014-05-29 01:37:00,0.0,1.89586,0.00026,400.885,0.026,0.5311,0.0018,140.000,45.000,31569.64123,1.90592,403.488,35.668,45.063,45.000,0.00,0.11,-272.66,-272.65,-10,559,-1,19.2,18.0,-5.7,19.4,18.5,-5.2,5.73,2.36,-7.4,26.0
2014-05-29 01:38:00,0.0,1.89607,0.00039,400.877,0.031,0.5316,0.0017,140.000,45.000,31571.08725,1.90615,403.482,35.653,45.063,45.000,0.00,0.11,-272.66,-272.65,-10,559,-1,19.2,18.0,-5.7,19.4,18.5,-5.2,5.73,2.59,-7.3,26.0
2014-05-29 01:39:00,0.0,1.89601,0.00033,400.854,0.028,0.5307,0.0014,140.000,45.000,31571.10053,1.90609,403.454,35.677,45.063,45.000,0.00,0.11,-272.67,-272.65,-11,559,-1,19.2,18.0,-5.7,19.4,18.5,-5.2,5.73,2.78,-7.4,25.9
2014-05-29 01:40:00,0.0,1.89565,0.00028,400.846,0.033,0.5323,0.0014,139.996,45.000,31570.90204,1.90572,403.452,35.688,45.063,45.000,0.00,0.11,-272.67,-272.66,-11,559,-1,19.2,18.1,-5.6,19.4,18.5,-5.2,5.73,2.96,-7.4,25.9
2014-05-29 01:41:00,0.0,1.89574,0.00031,400.848,0.025,0.5327,0.0017,139.998,45.000,31571.50951,1.90583,403.458,35.688,45.063,45.000,0.00,0.11,-272.66,-272.66,-11,559,-1,19.2,18.1,-5.6,19.4,18.5,-5.1,5.73,3.08,-7.3,25.9
2014-05-29 01:42:00,0.0,1.89590,0.00040,400.873,0.038,0.5320,0.0019,139.999,45.000,31569.96711,1.90600,403.479,35.690,45.063,45.000,0.00,0.11,-272.65,-272.67,-11,559,-1,19.2,18.1,-5.6,19.4,18.5,-5.1,5.73,3.16,-7.4,25.9
2014-05-29 01:43:00,0.0,1.89584,0.00024,400.867,0.038,0.5331,0.0016,139.998,45.000,31570.65475,1.90595,403.478,35.689,45.063,45.000,0.00,0.11,-272.65,-272.68,-11,559,-1,19.2,18.1,-5.6,19.4,18.5,-5.1,5.73,3.17,-7.3,25.9
2014-05-29 01:44:00,0.0,1.89587,0.00037,400.890,0.028,0.5329,0.0021,139.999,45.000,31570.65326,1.90595,403.501,35.689,45.063,45.000,0.00,0.11,-272.64,-272.69,-11,560,-1,19.2,18.1,-5.6,19.4,18.5,-5.1,5.73,3.11,-7.3,25.9
2014-05-29 01:45:00,0.0,1.89611,0.00036,400.881,0.040,0.5349,0.0023,140.002,45.000,31570.36162,1.90629,403.503,35.688,45.063,45.000,0.00,0.11,-272.62,-272.70,-11,560,-1,19.2,18.2,-5.6,19.4,18.6,-5.1,5.73,3.00,-7.3,25.9
2014-05-29 01:46:00,0.0,1.89597,0.00036,400.865,0.036,0.5353,0.0018,140.001,45.000,31572.50071,1.90612,403.486,35.685,45.063,45.000,0.00,0.10,-272.61,-272.71,-11,560,-1,19.2,18.2,-5.6,19.4,18.6,-5.1,5.73,2.82,-7.4,25.9